Probability
74 74 74 71 71 68 65 65 61 61 65 58 55 48 55 55 55 55 39 42 39 39 39 39 42 48 35 23 19 19 23 29 26 23 29 29 26 23 16 23 23 19 6
74 74 74 68 68 65 61 61 55 55 55 52 52 55 52 55 58 52 45 42 42 39 39 39 32 32 39 35 32 19 19 29 23 19 26 26 29 29 26 29 13 6 6
74 71 71 61 61 61 58 58 52 52 52 52 55 48 52 55 55 45 45 39 39 35 35 39 35 35 32 32 29 26 19 16 23 23 16 23 26 19 26 16 13 26 10
77 68 65 55 58 58 55 52 52 48 52 52 52 48 45 48 42 42 35 39 39 39 32 32 29 26 32 32 26 29 23 26 23 23 16 26 26 23 23 16 16 13 13
58 61 55 61 52 52 52 52 52 52 52 48 48 45 48 39 32 39 45 35 32 32 26 32 29 23 23 23 19 23 19 23 19 19 16 23 23 23 13 19 10 13 16
58 55 61 58 61 45 52 52 52 48 48 45 42 42 42 26 23 10 23 32 39 35 29 26 23 23 19 6 6 3 10 19 19 19 16 19 19 19 26 10 10 16 13
58 61 61 65 55 52 39 42 42 45 48 45 45 45 39 29 16 6 6 23 29 35 35 29 23 13 19 19 6 0 0 0 0 6 16 16 23 26 23 19 16 13 16
55 55 55 52 55 55 42 42 52 52 52 52 48 45 35 29 13 10 0 13 19 26 32 32 29 32 16 16 19 6 16 13 3 0 6 10 13 16 23 13 26 23 19
52 55 45 48 48 55 48 48 52 55 52 48 48 48 39 29 10 0 0 10 26 29 29 23 29 26 6 3 13 19 23 16 0 0 0 0 0 3 6 10 10 10 10
48 48 48 48 48 52 55 48 48 48 52 45 42 35 35 32 6 0 0 10 23 26 32 26 10 6 6 3 10 23 10 10 10 3 3 0 0 0 0 0 6 3 10
42 42 45 45 48 55 58 55 55 45 35 32 35 32 39 32 13 0 0 10 16 19 10 13 3 0 0 0 0 6 6 10 13 6 10 10 10 13 10 10 13 3 10
45 45 42 42 42 45 55 48 52 45 42 45 35 32 29 26 10 0 0 0 0 10 10 10 0 0 0 0 0 0 0 0 13 13 10 3 10 10 16 10 16 13 10
39 39 45 39 39 45 48 48 45 42 35 32 29 26 23 19 13 0 0 0 0 3 3 0 0 0 0 0 0 0 0 0 10 10 3 10 6 6 10 10 13 13 19
39 42 39 35 39 35 29 23 26 19 23 23 29 23 19 19 13 3 0 0 0 0 0 0 0 0 0 0 0 0 0 0 3 3 6 10 13 13 10 10 10 13 10
32 26 26 26 26 35 26 23 16 16 13 16 23 19 19 16 10 3 3 0 3 0 0 0 0 0 3 3 3 3 0 0 0 0 6 6 10 6 3 10 10 6 6
26 23 23 23 23 16 13 3 0 0 0 0 3 6 6 3 0 0 0 0 0 0 0 0 0 3 0 3 3 3 6 3 6 3 6 6 3 3 3 6 6 3 6
29 26 23 23 19 19 13 13 3 3 0 0 0 0 3 0 0 0 0 0 0 0 0 3 6 3 0 0 3 3 3 3 3 3 6 6 6 6 3 3 3 3 3
29 19 19 19 16 16 13 13 10 6 10 3 0 0 0 0 0 0 0 0 0 0 0 3 3 3 6 6 3 0 3 6 3 3 3 3 6 6 3 3 6 3 3
23 19 19 19 13 16 16 10 10 13 6 3 3 0 0 0 0 0 0 0 0 0 0 0 0 3 3 3 6 6 6 10 6 3 3 3 10 10 6 6 3 3 3
23 10 13 13 13 10 10 10 10 13 3 3 0 0 0 0 0 0 0 0 0 0 0 0 3 3 3 3 6 6 3 3 3 3 3 6 6 10 10 3 3 3 3
13 13 6 10 10 13 10 13 10 10 6 3 0 0 0 0 0 0 0 0 0 0 0 0 6 6 6 6 3 3 3 3 3 3 0 3 3 3 13 6 6 3 3
19 10 6 6 6 10 10 10 10 10 10 0 0 0 0 0 0 0 3 0 0 0 0 0 0 0 3 3 3 3 3 3 3 3 3 3 6 6 10 6 6 3 3
16 10 10 10 10 10 10 10 10 10 6 3 3 0 0 0 0 0 0 3 3 0 0 0 0 0 0 0 3 3 3 3 3 3 3 3 3 3 6 6 3 0 3
13 13 13 13 16 13 10 13 6 6 3 3 3 0 0 0 0 0 0 3 3 3 0 0 0 0 0 3 0 0 3 3 3 3 3 3 0 3 6 3 3 3 0
6 6 6 6 6 13 13 10 10 10 6 6 3 0 0 0 0 0 0 0 0 0 0 0 0 0 0 0 0 0 0 0 0 3 3 3 0 0 3 6 3 3 0
6 6 6 10 6 6 6 6 6 3 6 6 3 3 3 3 3 3 3 3 0 3 3 3 0 0 0 0 0 0 0 0 0 0 0 0 3 3 3 6 6 0 0
Height
5885 5884 5884 5884 5882 5882 5881 5881 5881 5880 5879 5878 5877 5875 5874 5873 5871 5870 5868 5867 5866 5864 5862 5861 5859 5857 5856 5854 5852 5850 5848 5847 5845 5843 5841 5840 5838 5837 5835 5834 5833 5832 5831
5882 5881 5881 5880 5879 5879 5878 5878 5877 5877 5876 5875 5873 5872 5871 5869 5867 5866 5864 5863 5861 5859 5858 5856 5854 5852 5851 5849 5847 5845 5844 5842 5840 5838 5837 5835 5834 5832 5830 5829 5828 5826 5825
5878 5878 5878 5877 5876 5875 5875 5874 5874 5873 5872 5871 5869 5868 5866 5865 5863 5861 5859 5858 5856 5854 5853 5851 5849 5847 5845 5844 5842 5840 5839 5837 5835 5833 5832 5830 5828 5827 5825 5823 5822 5821 5820
5875 5874 5873 5873 5872 5872 5871 5870 5869 5868 5867 5866 5865 5863 5862 5860 5858 5856 5855 5853 5851 5849 5848 5846 5844 5842 5840 5838 5837 5835 5833 5831 5829 5828 5826 5824 5823 5821 5819 5818 5816 5815 5814
5871 5870 5869 5869 5868 5867 5867 5866 5864 5863 5862 5861 5860 5858 5857 5855 5853 5851 5849 5847 5845 5844 5842 5840 5838 5836 5834 5833 5831 5829 5827 5825 5823 5821 5820 5818 5817 5815 5813 5812 5811 5809 5808
5866 5866 5865 5864 5863 5863 5862 5860 5859 5858 5857 5855 5854 5852 5851 5849 5847 5845 5843 5841 5839 5838 5836 5834 5832 5830 5828 5826 5824 5822 5820 5818 5817 5815 5814 5812 5810 5808 5807 5805 5804 5803 5802
5861 5860 5860 5859 5858 5857 5856 5855 5854 5852 5851 5849 5848 5846 5844 5842 5840 5838 5836 5834 5833 5831 5829 5827 5825 5823 5822 5820 5818 5816 5814 5812 5810 5808 5807 5805 5804 5802 5800 5798 5797 5796 5796
5856 5855 5854 5853 5853 5852 5851 5850 5848 5847 5845 5843 5842 5840 5838 5836 5833 5831 5829 5827 5825 5824 5822 5820 5818 5816 5814 5812 5810 5808 5806 5804 5802 5801 5800 5798 5796 5795 5793 5792 5791 5790 5789
5850 5849 5848 5848 5847 5846 5845 5844 5842 5840 5839 5837 5835 5833 5831 5829 5826 5824 5822 5820 5818 5816 5814 5812 5810 5808 5806 5804 5802 5800 5798 5796 5795 5793 5792 5790 5789 5787 5786 5785 5784 5783 5782
5843 5843 5842 5841 5840 5839 5838 5837 5835 5834 5832 5830 5828 5826 5824 5822 5819 5817 5814 5813 5810 5808 5806 5804 5802 5800 5798 5795 5793 5791 5790 5788 5786 5785 5784 5783 5781 5780 5779 5778 5777 5776 5775
5836 5835 5834 5834 5833 5832 5831 5830 5828 5827 5825 5823 5821 5819 5816 5814 5812 5810 5807 5805 5803 5800 5798 5796 5794 5792 5789 5787 5785 5783 5782 5780 5778 5777 5776 5775 5774 5773 5771 5770 5770 5769 5768
5829 5828 5827 5826 5825 5825 5824 5823 5821 5819 5817 5815 5813 5811 5809 5807 5804 5802 5800 5797 5795 5793 5790 5788 5786 5783 5782 5780 5778 5776 5774 5772 5771 5770 5769 5768 5767 5765 5764 5763 5762 5762 5761
5821 5820 5819 5819 5818 5817 5816 5815 5813 5811 5809 5807 5805 5803 5801 5799 5796 5794 5792 5789 5787 5785 5782 5780 5778 5775 5774 5772 5770 5768 5766 5765 5764 5762 5761 5760 5759 5758 5757 5756 5755 5754 5753
5813 5812 5811 5810 5810 5809 5808 5806 5804 5803 5801 5798 5796 5794 5792 5790 5788 5786 5783 5781 5779 5776 5774 5772 5770 5768 5766 5764 5762 5760 5759 5757 5756 5755 5754 5752 5751 5750 5749 5748 5747 5746 5746
5804 5803 5802 5802 5801 5800 5798 5797 5795 5794 5792 5789 5787 5785 5783 5782 5780 5777 5775 5773 5771 5768 5766 5764 5762 5760 5758 5756 5755 5753 5751 5750 5748 5747 5746 5745 5743 5742 5741 5740 5739 5739 5738
5795 5794 5793 5792 5791 5790 5789 5787 5786 5784 5783 5780 5778 5776 5774 5772 5770 5769 5767 5764 5762 5760 5758 5756 5754 5752 5750 5749 5747 5745 5743 5742 5741 5739 5738 5736 5735 5734 5733 5732 5731 5731 5730
5787 5786 5784 5783 5781 5780 5779 5778 5777 5776 5773 5771 5770 5768 5766 5764 5762 5760 5758 5756 5754 5752 5750 5748 5746 5744 5743 5741 5739 5737 5736 5734 5733 5731 5730 5728 5727 5726 5725 5724 5723 5723 5722
5777 5776 5775 5774 5772 5771 5770 5768 5767 5766 5765 5763 5761 5759 5757 5755 5753 5751 5749 5747 5745 5743 5742 5740 5738 5736 5734 5732 5731 5729 5727 5726 5724 5723 5721 5720 5719 5718 5717 5716 5716 5715 5714
5768 5767 5766 5765 5763 5762 5761 5760 5758 5757 5755 5754 5752 5750 5748 5746 5744 5742 5740 5738 5737 5735 5733 5731 5730 5728 5726 5724 5723 5721 5719 5717 5716 5714 5713 5712 5711 5710 5709 5709 5708 5707 5706
5760 5759 5757 5756 5755 5754 5753 5751 5750 5748 5746 5744 5742 5741 5739 5737 5735 5733 5731 5729 5728 5726 5724 5723 5721 5719 5717 5716 5714 5712 5711 5709 5708 5707 5705 5704 5703 5702 5701 5701 5700 5700 5699
5751 5750 5749 5748 5747 5746 5744 5743 5741 5739 5738 5735 5733 5732 5730 5728 5726 5724 5722 5721 5719 5718 5716 5714 5713 5711 5709 5707 5705 5704 5702 5701 5700 5699 5697 5696 5695 5694 5694 5693 5693 5692 5691
5742 5741 5741 5740 5739 5738 5736 5734 5733 5731 5729 5727 5725 5723 5721 5719 5717 5715 5713 5712 5710 5709 5707 5706 5704 5702 5701 5699 5697 5696 5694 5693 5692 5691 5690 5688 5687 5687 5686 5686 5685 5684 5684
5734 5733 5732 5732 5731 5730 5728 5727 5725 5723 5721 5719 5717 5715 5713 5710 5708 5706 5705 5703 5701 5700 5699 5697 5696 5694 5692 5690 5689 5687 5686 5685 5684 5682 5681 5680 5679 5679 5678 5678 5677 5677 5676
5725 5725 5724 5723 5723 5722 5720 5719 5717 5715 5713 5711 5709 5707 5705 5702 5700 5698 5696 5695 5693 5691 5690 5689 5687 5686 5684 5682 5680 5679 5677 5676 5675 5674 5673 5672 5672 5671 5670 5670 5669 5669 5669
5717 5717 5716 5716 5715 5714 5712 5711 5709 5707 5705 5703 5701 5699 5697 5695 5692 5690 5688 5687 5685 5683 5682 5680 5679 5677 5675 5673 5672 5670 5670 5669 5667 5666 5665 5665 5664 5663 5663 5662 5662 5661 5661
5709 5709 5709 5708 5707 5706 5704 5703 5701 5699 5697 5695 5693 5691 5689 5687 5685 5683 5681 5679 5677 5675 5674 5672 5670 5669 5667 5666 5664 5663 5662 5661 5660 5658 5657 5657 5657 5656 5655 5654 5654 5654 5653
Wind_Speed
15 14 15 15 15 15 14 13 13 13 14 14 15 15 16 17 18 19 19 20 20 20 20 20 21 21 21 22 22 22 22 22 22 22 21 20 20 19 19 19 20 20 21
16 16 17 17 16 15 15 15 15 15 15 16 16 16 17 18 19 20 20 20 20 21 21 21 21 22 22 22 23 22 22 22 21 21 21 21 21 21 20 20 20 20 20
17 18 18 18 17 17 17 17 17 17 17 18 18 19 19 20 21 21 21 22 22 22 22 22 22 22 22 23 23 23 23 23 23 22 22 22 22 22 22 22 21 21 21
19 19 18 18 18 18 18 18 18 19 19 20 21 21 21 22 22 23 23 23 23 23 23 23 24 24 23 24 24 25 25 25 24 24 24 24 24 23 23 22 22 22 21
20 20 20 19 19 19 20 21 21 21 22 22 23 23 23 24 24 24 24 24 24 24 25 25 25 25 25 25 26 26 26 26 25 25 24 24 24 24 23 22 22 21 21
22 21 21 21 20 21 21 22 22 22 23 24 25 25 25 25 25 26 26 26 26 26 26 26 26 26 26 27 27 27 26 26 26 25 25 25 25 24 23 22 22 22 21
23 23 22 22 22 22 22 23 23 24 25 25 26 26 27 27 27 27 27 27 27 27 27 27 27 28 28 29 29 29 28 28 27 26 26 25 25 24 24 23 22 22 21
23 23 23 23 23 23 24 25 25 25 26 27 27 27 27 27 28 28 28 29 29 28 28 28 28 28 29 29 30 30 29 29 27 27 27 26 25 25 25 24 23 23 22
25 25 25 25 25 25 25 26 26 27 28 28 29 29 29 29 29 29 29 29 29 29 29 29 28 28 29 29 29 29 29 29 28 28 28 27 27 25 24 24 24 23 22
25 26 26 26 26 26 27 27 28 28 28 28 29 29 30 30 30 29 29 28 29 29 29 29 29 29 29 29 28 28 27 27 27 27 27 27 26 25 25 25 24 23 22
27 27 27 27 27 27 28 28 28 29 29 29 29 29 30 31 31 31 29 29 29 28 29 29 29 29 28 27 27 27 27 27 26 25 25 25 25 25 24 24 24 24 24
28 28 28 28 29 29 28 29 29 30 30 30 30 30 31 32 32 31 31 30 29 29 29 28 28 27 27 27 27 27 26 26 25 25 25 25 24 24 23 24 25 25 25
29 29 30 30 30 30 30 31 31 31 31 31 31 31 32 32 32 31 30 29 28 28 29 29 28 27 27 27 26 26 25 25 25 25 25 24 24 24 24 24 25 25 24
30 31 31 32 31 31 31 32 32 33 32 33 33 32 32 32 31 31 30 30 30 29 29 29 28 28 27 27 26 25 25 25 25 25 25 25 25 25 24 24 24 25 25
31 32 32 32 33 32 33 33 33 33 33 33 33 32 32 31 31 31 30 30 30 29 29 29 29 28 27 26 26 25 24 24 24 24 25 25 25 24 24 24 24 24 24
31 31 31 32 33 33 33 34 34 33 33 32 31 31 30 30 30 30 29 29 29 29 29 29 28 27 26 26 26 25 25 25 25 25 25 25 24 24 24 24 24 24 24
31 32 32 33 33 32 32 32 32 32 31 31 31 31 30 30 30 30 30 30 30 29 29 28 28 27 27 27 26 25 25 25 26 26 25 25 25 24 24 24 24 24 24
32 32 32 32 32 31 31 31 31 31 31 31 31 30 30 30 30 30 30 30 29 29 29 28 28 27 27 27 27 26 26 26 26 26 26 25 25 25 24 24 24 24 24
31 31 31 31 30 29 30 30 31 31 31 31 31 30 30 30 30 30 30 29 29 29 28 28 27 27 28 28 28 28 27 27 26 26 25 25 25 24 23 23 23 24 24
31 31 30 29 29 29 30 30 31 31 31 31 30 30 30 30 30 30 29 29 29 29 28 28 28 28 28 28 28 28 28 27 25 25 24 24 24 23 23 23 23 23 24
31 31 30 29 29 29 30 30 30 30 30 30 30 30 30 30 30 29 29 29 29 29 29 29 29 28 28 28 28 27 27 26 25 25 24 24 24 23 23 23 23 23 23
30 30 29 28 29 29 29 29 30 30 30 30 29 29 29 30 30 29 29 29 28 28 28 28 28 28 28 27 27 27 26 26 25 25 25 24 24 23 23 23 23 23 23
29 29 29 28 28 28 28 28 29 29 29 29 29 28 29 29 29 29 28 28 28 28 29 28 28 27 27 28 28 27 26 26 26 25 25 24 24 23 23 23 23 23 22
28 28 28 27 27 27 27 28 28 28 28 28 28 28 28 29 28 28 28 28 28 28 29 29 29 28 28 28 27 26 25 25 25 25 24 24 24 23 23 23 23 23 23
28 27 27 27 27 28 28 28 28 28 28 28 28 28 28 28 28 27 28 28 28 28 28 28 28 28 27 26 25 24 24 24 24 24 24 24 23 23 23 23 22 22 22
27 27 27 27 27 27 27 27 27 27 27 26 26 26 27 27 27 27 27 27 27 27 27 27 28 27 26 25 25 25 25 25 25 24 24 24 23 23 23 23 23 23 23
Wind_Direction
293 291 291 294 294 295 296 296 300 300 302 303 305 307 308 307 306 304 303 302 302 301 300 299 299 300 299 299 301 302 303 304 305 304 303 302 301 300 296 295 294 292 290
289 288 290 293 294 296 298 297 297 298 298 300 302 304 304 306 307 306 304 303 303 302 300 300 300 299 299 299 300 301 302 302 301 300 301 301 301 298 297 296 295 294 290
291 289 290 293 295 294 294 295 295 295 296 297 298 299 301 303 304 304 302 303 301 303 303 302 301 300 298 298 298 298 299 298 297 297 298 298 299 297 296 296 294 294 291
290 291 291 292 293 294 295 295 296 295 296 297 298 299 299 299 300 300 300 299 300 301 303 304 302 301 299 299 299 298 297 296 296 296 296 296 297 296 296 294 294 293 292
286 288 290 290 293 293 295 295 296 295 295 295 297 296 297 298 299 299 299 299 300 300 300 301 301 300 300 299 298 297 296 294 294 293 293 294 294 294 294 294 293 293 293
285 287 287 287 290 292 295 296 297 295 295 295 297 298 298 299 298 297 297 298 298 298 298 298 299 298 298 297 297 297 297 295 293 292 291 293 294 294 293 293 292 292 292
284 283 285 287 290 292 295 296 297 296 296 296 297 298 299 299 299 297 296 296 296 296 296 296 297 297 296 295 296 295 295 294 292 291 291 292 293 293 292 291 290 290 290
282 282 283 286 289 291 294 296 297 298 297 295 296 296 298 299 299 298 297 296 296 295 296 297 296 297 296 296 294 294 294 292 291 290 291 291 290 290 290 290 289 289 288
280 281 283 285 287 290 293 295 296 296 297 297 296 295 297 299 299 297 297 296 297 296 296 297 298 298 297 296 295 294 294 293 290 290 289 288 289 290 288 288 288 289 289
282 282 283 283 285 289 291 292 294 296 297 297 298 298 299 300 300 298 296 295 296 295 295 296 297 296 295 294 294 294 293 294 292 288 287 288 289 288 287 287 287 287 288
282 282 282 284 285 288 290 291 294 295 296 297 298 298 298 298 299 299 296 296 295 295 295 296 296 296 294 294 295 295 294 293 292 290 288 287 286 287 286 286 287 287 287
281 280 281 282 284 286 290 293 294 296 296 296 296 297 297 298 299 299 297 297 294 295 296 297 296 294 293 294 296 296 295 293 291 290 289 287 286 286 286 286 286 287 286
280 279 280 282 284 285 288 291 292 294 295 296 296 296 297 297 298 299 299 297 297 297 297 296 295 294 293 294 296 296 295 294 292 292 291 288 286 286 287 287 286 285 284
280 280 282 283 284 284 286 289 291 293 295 296 296 296 296 296 297 297 296 296 296 298 299 297 295 294 293 293 293 294 293 292 292 292 292 291 288 286 285 284 284 284 282
280 281 282 283 285 285 285 287 290 292 294 295 295 295 295 295 296 295 294 294 295 297 298 298 297 295 294 294 293 292 291 290 291 291 292 291 288 285 283 283 283 283 283
282 284 284 284 284 284 285 288 290 291 294 294 295 294 294 294 294 294 293 293 295 296 297 296 295 295 294 293 292 291 290 290 290 289 290 291 288 285 283 283 282 282 284
283 284 285 286 287 287 288 289 289 291 292 293 294 294 294 294 293 293 293 293 294 294 295 295 295 294 294 293 292 290 289 289 288 289 289 289 288 286 284 283 282 281 283
283 284 285 286 287 287 288 289 289 290 292 293 293 293 293 293 293 292 292 293 294 293 293 293 294 294 294 294 294 292 290 289 289 288 288 288 287 285 284 283 282 281 283
282 284 286 286 285 285 287 289 290 292 292 293 293 293 292 292 292 293 292 292 293 293 291 292 294 294 294 295 295 294 291 290 289 288 288 288 287 285 283 282 282 283 284
280 284 285 285 284 285 287 289 290 292 292 292 292 292 293 293 293 293 292 291 291 292 292 291 292 294 294 296 295 293 291 289 289 289 289 288 287 285 283 281 282 283 283
280 282 283 284 286 288 289 290 291 292 292 292 292 292 293 294 293 292 290 289 290 292 293 292 292 293 294 294 294 293 291 289 288 288 288 288 287 285 283 282 282 282 283
279 280 282 284 286 288 290 291 291 292 292 292 292 292 292 292 292 291 291 290 290 291 290 290 291 292 293 293 292 291 290 288 288 287 287 287 286 284 283 282 282 281 282
277 279 282 283 285 288 289 289 290 291 292 292 292 293 293 293 293 292 292 291 291 290 289 290 290 291 293 294 294 292 289 288 287 287 287 287 285 284 282 281 281 280 280
277 279 281 282 285 287 288 289 290 291 292 292 292 293 294 294 294 294 294 293 293 291 290 289 290 290 291 292 292 290 288 287 286 286 286 286 285 284 282 281 279 279 279
275 277 279 282 285 286 288 288 290 292 292 292 292 293 293 293 294 294 295 294 294 293 291 290 290 291 291 292 291 289 288 287 286 285 284 283 284 283 281 280 279 279 280
274 277 279 281 284 285 287 289 291 293 293 293 293 293 293 293 294 294 295 294 293 292 290 290 290 290 289 290 290 289 287 286 285 284 284 283 283 282 281 279 278 279 281